TimeEDT,TemperatureF,Dew PointF,Humidity,Sea Level PressureIn,VisibilityMPH,Wind Direction,Wind SpeedMPH,Gust SpeedMPH,PrecipitationIn,Events,Conditions,WindDirDegrees,DateUTC
12:53 AM,62.1,60.1,93,29.91,7.0,West,5.8,-,N/A,,Clear,260,2013-10-02 04:53:00
1:53 AM,62.1,60.1,93,29.92,8.0,West,5.8,-,N/A,,Clear,280,2013-10-02 05:53:00
2:53 AM,60.1,55.9,86,29.94,10.0,WNW,4.6,-,N/A,,Clear,290,2013-10-02 06:53:00
3:53 AM,59.0,52.0,78,29.95,10.0,WNW,5.8,-,N/A,,Clear,300,2013-10-02 07:53:00
4:53 AM,57.0,48.9,74,29.98,10.0,WNW,5.8,-,N/A,,Clear,290,2013-10-02 08:53:00
5:53 AM,46.9,46.0,97,30.00,10.0,Calm,Calm,-,N/A,,Clear,0,2013-10-02 09:53:00
6:28 AM,44.6,42.8,93,30.01,1.8,Calm,Calm,-,N/A,,Clear,0,2013-10-02 10:28:00
6:38 AM,44.6,44.6,100,30.02,1.5,Calm,Calm,-,N/A,,Clear,0,2013-10-02 10:38:00
6:43 AM,44.6,44.6,100,30.02,2.0,Calm,Calm,-,N/A,,Clear,0,2013-10-02 10:43:00
6:53 AM,44.1,43.0,96,30.03,1.8,Calm,Calm,-,N/A,,Clear,0,2013-10-02 10:53:00
7:00 AM,44.6,44.6,100,30.02,3.0,WNW,3.5,-,N/A,,Clear,300,2013-10-02 11:00:00
7:53 AM,44.1,43.0,96,30.05,7.0,Calm,Calm,-,N/A,,Clear,0,2013-10-02 11:53:00
8:53 AM,53.1,50.0,89,30.07,10.0,Calm,Calm,-,N/A,,Clear,0,2013-10-02 12:53:00
9:53 AM,57.9,48.0,70,30.09,10.0,West,5.8,-,N/A,,Clear,280,2013-10-02 13:53:00
10:53 AM,63.0,48.0,58,30.10,10.0,West,4.6,-,N/A,,Clear,280,2013-10-02 14:53:00
11:53 AM,64.0,48.0,56,30.10,10.0,SW,5.8,-,N/A,,Clear,230,2013-10-02 15:53:00
12:53 PM,69.1,39.9,35,30.10,10.0,West,5.8,-,N/A,,Clear,260,2013-10-02 16:53:00
1:53 PM,70.0,37.0,30,30.09,10.0,West,5.8,-,N/A,,Clear,270,2013-10-02 17:53:00
9:53 PM,45.0,42.1,90,30.11,10.0,Calm,Calm,-,N/A,,Clear,0,2013-10-03 01:53:00
10:53 PM,44.1,42.1,93,30.10,10.0,East,3.5,-,N/A,,Clear,80,2013-10-03 02:53:00
11:53 PM,43.0,42.1,97,30.11,10.0,Calm,Calm,-,N/A,,Clear,0,2013-10-03 03:53:00